RH
68 68 64 65 65 59 60 56 74 45 56 49 66 64 53 56 55 54 55 56 51 46 37 35 28 28 26 25 23 28 26 36 44 43 41 37 39 36 32 29 29 34 52 76
74 55 59 57 54 58 59 58 59 56 60 59 62 62 54 55 50 49 51 52 50 51 46 44 38 45 31 27 26 23 27 22 23 40 42 40 41 37 33 33 31 29 30 30
76 60 65 74 64 54 62 62 63 90 73 68 74 70 60 56 54 55 54 48 50 58 66 61 47 43 46 40 38 29 24 24 22 20 29 40 41 40 41 33 33 32 31 31
89 71 69 43 64 65 72 63 62 62 63 70 72 67 63 57 56 56 59 60 57 51 54 65 58 47 41 42 41 40 40 37 32 29 25 20 26 38 42 42 32 32 33 33
91 94 64 63 77 70 67 71 56 63 66 65 66 63 58 46 58 59 60 61 61 66 63 57 52 52 49 40 35 39 42 42 40 38 35 30 25 21 28 38 42 32 31 32
99 97 97 53 61 49 65 89 51 54 65 69 67 88 72 48 65 66 64 64 67 72 66 55 50 51 50 48 45 41 40 45 48 48 47 38 37 31 27 26 23 24 31 28
94 96 80 58 50 49 83 71 50 57 60 52 76 57 54 59 60 64 64 64 77 66 62 59 56 51 48 50 54 60 55 50 46 50 61 63 52 46 42 37 30 24 21 21
88 96 97 47 41 60 55 38 43 52 53 50 44 46 58 61 64 64 67 72 69 66 62 61 60 56 53 52 52 58 70 75 77 77 59 68 73 69 61 58 51 34 30 24
77 75 53 44 42 38 38 40 46 52 46 53 56 64 65 67 68 71 75 72 68 72 71 63 64 67 70 66 80 85 78 82 99 99 100 100 98 92 99 92 77 59 48 38
57 52 53 45 44 45 44 45 48 52 47 61 65 68 68 71 72 67 52 52 66 75 78 70 66 63 59 72 98 100 100 100 100 98 100 100 100 100 100 100 100 100 95 77
67 52 43 38 39 41 44 45 47 47 48 72 71 70 70 67 54 45 51 61 90 100 100 82 67 53 48 65 97 100 100 100 100 100 100 100 100 100 100 100 100 98 100 98
56 40 41 38 39 43 46 46 41 46 52 71 71 66 64 45 42 63 86 100 100 100 97 74 53 41 36 54 82 96 100 100 100 100 100 99 98 99 100 100 100 98 99 100
44 41 45 46 47 47 49 50 52 52 60 70 68 64 47 39 38 37 57 100 100 100 93 70 56 39 31 52 77 94 100 100 100 100 100 99 98 99 99 98 99 98 99 100
43 47 58 50 50 43 49 58 58 60 67 67 64 46 34 29 28 51 94 99 100 95 80 74 65 50 34 58 78 91 94 97 100 100 100 100 100 100 100 100 98 91 98 98
47 48 46 47 51 49 52 55 67 68 66 65 44 30 29 30 42 74 96 100 94 83 81 77 77 60 44 64 80 90 89 95 100 100 100 100 100 100 100 99 99 100 99 96
34 46 53 51 53 56 59 61 66 66 66 41 32 32 32 29 34 73 100 99 90 77 81 81 82 72 56 71 80 87 87 92 98 99 100 100 100 100 100 100 100 99 98 98
48 47 46 48 52 51 54 56 65 69 46 34 33 31 22 19 31 53 78 84 82 83 88 95 86 79 63 68 82 87 90 90 92 97 100 100 98 100 100 100 99 99 99 98
49 47 46 44 46 50 56 62 66 59 40 34 33 34 32 27 26 46 67 77 78 78 84 88 88 80 64 53 78 81 89 91 95 98 98 98 97 99 98 98 99 100 99 99
47 46 45 45 46 52 55 61 60 48 39 38 36 42 47 54 47 44 65 73 78 77 80 84 85 82 65 57 65 78 87 89 93 98 97 97 97 97 97 97 97 98 98 98
41 42 44 48 50 51 53 57 52 40 43 46 40 42 50 69 73 53 46 67 83 86 85 85 85 85 72 59 55 63 77 86 90 94 95 97 96 96 96 96 96 96 97 98
32 40 41 44 48 52 55 55 50 48 54 50 47 48 59 72 84 78 43 51 69 77 79 82 86 85 88 58 52 53 53 62 76 94 95 96 96 96 96 96 96 97 97 97
36 36 37 38 46 50 55 61 60 57 54 54 53 54 63 72 85 83 52 41 58 76 75 81 86 89 92 87 61 50 58 55 53 61 77 90 95 96 96 97 96 96 97 97
33 36 40 47 51 51 62 63 59 59 62 65 59 57 69 82 84 83 41 24 45 59 66 76 86 90 91 90 89 80 61 54 56 62 67 79 97 99 98 96 90 82 78 82
40 45 48 53 57 61 61 48 54 65 68 63 64 68 76 78 82 79 39 10 14 26 35 56 78 92 94 90 91 91 91 89 78 71 72 71 75 81 86 91 92 95 93 91
45 52 49 50 55 54 50 56 64 70 71 68 71 75 78 78 82 80 52 10 10 12 14 25 52 78 90 91 92 92 94 96 96 95 92 90 87 84 80 79 84 88 92 94
51 48 49 52 55 60 65 65 62 68 80 81 82 85 89 86 88 88 52 11 12 12 12 12 15 24 33 37 38 39 38 45 60 79 92 95 95 94 95 95 95 94 92 92
52 55 56 51 52 59 62 55 57 61 72 85 81 91 94 89 89 95 54 14 13 13 14 15 16 18 19 20 20 20 21 23 24 26 26 28 34 45 65 82 93 95 96 96
Wind_Speed
6 6 3 6 9 7 8 9 5 6 8 6 6 6 10 12 14 18 21 23 28 33 39 41 42 42 41 38 39 36 33 31 29 31 31 27 20 19 15 14 13 11 6 6
4 4 6 8 9 7 9 9 11 14 16 1 10 10 8 10 15 20 26 28 32 33 38 40 42 40 42 42 37 34 33 33 29 27 29 35 35 31 21 16 13 11 9 10
3 3 4 5 6 6 3 2 4 4 3 5 4 9 7 8 13 16 21 27 32 32 27 31 37 37 38 39 39 36 33 34 31 28 28 29 32 35 31 27 21 16 12 11
2 3 2 4 2 3 5 4 2 1 3 6 9 15 14 10 18 18 21 27 32 36 39 35 33 35 36 36 38 38 38 38 37 38 35 30 29 31 32 30 29 23 19 16
2 2 7 2 3 5 3 4 3 3 6 8 10 13 14 15 16 18 22 26 31 32 34 35 34 34 36 38 39 41 40 38 38 39 41 40 36 32 29 30 35 35 28 24
1 2 5 4 4 5 6 3 1 5 6 8 12 4 5 20 20 19 24 28 29 30 32 31 32 34 35 36 38 38 39 41 41 42 42 42 43 42 39 36 36 36 36 33
2 3 7 5 8 8 4 4 3 3 5 10 4 14 22 22 18 22 25 26 25 26 27 30 32 35 37 39 39 37 38 41 41 42 43 43 45 43 43 44 43 40 40 42
4 5 9 12 5 6 2 5 10 8 10 18 23 22 19 19 22 25 23 23 25 27 29 31 32 35 37 40 40 40 42 42 44 44 43 45 45 46 44 44 45 45 44 46
8 6 5 20 8 7 7 9 10 10 17 20 18 15 18 21 23 23 26 28 26 25 27 28 31 33 36 39 39 41 43 44 43 41 38 38 41 45 43 42 43 45 42 45
1 5 12 17 15 17 15 12 10 13 18 12 13 16 19 20 21 26 28 26 25 26 27 28 31 33 34 39 38 38 40 43 43 44 42 39 36 36 39 40 36 37 36 39
6 8 17 21 17 9 9 14 14 14 19 13 14 15 17 22 24 24 23 24 23 23 26 30 33 36 36 40 41 42 42 43 44 44 43 44 43 41 40 40 36 38 39 37
7 11 13 12 14 14 18 19 19 22 17 13 14 16 19 21 22 21 21 21 23 25 27 30 34 37 37 41 46 47 45 46 45 46 47 48 47 48 43 42 38 38 38 37
14 17 19 19 16 17 18 19 17 13 13 14 14 16 17 18 21 23 22 21 23 24 27 29 33 38 39 43 48 48 45 46 45 45 44 45 46 47 48 43 39 35 32 33
23 24 23 24 20 15 13 12 10 10 12 14 17 17 17 19 21 21 20 20 22 24 25 28 33 39 41 45 49 49 47 46 43 45 46 45 43 40 39 39 39 36 33 29
27 25 25 25 24 18 17 16 14 14 13 16 16 16 18 20 19 18 18 19 22 23 24 28 32 37 41 43 47 47 46 45 43 43 42 40 37 36 35 34 33 36 35 29
10 9 11 16 9 11 14 14 16 15 16 14 13 14 17 20 18 17 16 18 24 24 25 27 31 34 40 40 45 45 43 41 40 40 40 39 36 33 29 30 31 32 30 29
18 16 15 17 15 12 13 12 15 15 14 13 12 13 14 16 17 16 17 19 22 21 22 25 28 32 35 36 40 41 40 40 38 38 37 34 34 31 24 25 27 28 29 23
31 28 22 18 15 14 13 15 16 15 13 11 10 10 11 15 17 18 18 20 21 22 23 25 26 29 31 32 35 39 39 37 37 38 36 34 31 28 26 22 18 12 7 4
21 20 18 19 17 15 12 15 14 12 12 10 11 10 11 13 18 19 18 19 21 23 25 26 26 27 29 30 29 33 36 37 36 36 36 34 33 30 28 24 21 19 17 15
15 17 17 15 14 15 14 12 12 12 11 11 12 12 12 12 16 20 18 17 19 21 23 25 26 26 27 27 28 27 30 35 36 37 37 36 35 33 31 28 27 25 24 22
18 18 17 16 15 13 12 12 11 10 10 13 14 14 14 14 17 20 21 18 16 18 19 21 23 25 27 26 25 26 26 29 32 33 35 36 36 36 35 34 33 31 30 29
21 20 18 15 14 14 13 12 11 11 12 14 15 16 15 14 16 19 19 19 16 17 18 19 20 22 24 24 23 23 23 25 27 26 29 31 32 33 33 32 32 31 30 29
22 19 17 16 16 14 13 13 13 13 13 15 16 15 15 14 16 19 18 14 14 14 16 16 17 18 19 21 21 23 23 23 24 24 24 25 26 27 28 29 29 29 28 27
18 17 16 14 15 15 16 12 11 13 14 14 15 15 15 15 15 17 17 15 14 13 14 14 15 15 16 17 18 19 20 22 23 22 23 23 23 23 23 23 24 24 24 25
16 15 14 14 15 15 13 11 13 15 17 15 13 15 16 15 15 17 16 14 13 12 12 12 13 13 14 14 15 16 17 17 19 20 21 21 22 23 23 24 24 23 21 20
14 14 12 12 13 13 13 13 15 15 17 18 18 17 18 18 18 17 16 13 12 11 11 11 11 12 13 13 14 14 14 14 14 15 16 17 18 19 20 20 21 21 22 21
12 12 13 14 16 17 17 17 18 18 18 19 19 20 18 20 20 19 15 12 10 9 9 9 9 10 10 11 12 13 14 15 16 16 16 16 16 16 16 17 18 19 19 19
Wind_Direction
264 262 225 254 264 254 212 224 213 283 277 300 312 319 340 3 9 5 3 3 2 0 360 358 356 350 355 355 355 352 357 351 347 333 342 359 355 1 12 20 28 28 15 242
289 287 223 256 255 238 245 244 239 260 280 267 324 345 354 8 1 356 353 350 352 355 353 352 352 351 346 342 341 343 343 339 337 332 326 320 323 334 343 338 345 350 343 323
265 332 316 309 228 194 221 157 205 244 246 320 319 333 311 334 344 342 342 342 344 346 349 348 347 346 343 337 336 335 332 329 326 326 321 315 310 303 318 320 320 321 316 311
261 354 8 251 105 123 157 166 165 201 280 301 303 315 309 306 330 329 335 335 337 337 337 342 346 341 336 336 338 336 330 324 325 321 317 311 305 299 293 297 306 302 299 292
119 255 292 233 182 165 173 226 205 239 262 301 317 318 290 314 312 309 322 327 330 329 328 330 336 339 339 340 336 334 332 326 322 318 313 310 307 302 292 285 277 286 286 284
153 138 238 234 163 135 124 260 169 270 297 313 325 314 272 325 317 310 319 326 326 323 326 330 334 337 336 338 336 331 326 325 323 318 314 311 305 301 298 294 285 279 273 271
178 241 282 238 165 149 153 220 301 301 280 322 253 278 301 309 311 316 324 327 323 325 329 332 333 333 335 336 336 331 327 323 320 319 316 311 306 301 297 292 289 282 278 271
176 209 259 160 119 177 182 323 307 306 306 299 305 300 300 307 314 319 323 325 324 322 323 329 335 337 336 336 334 331 328 326 323 320 315 312 310 304 299 295 292 285 285 279
188 214 220 185 196 203 260 302 277 298 316 302 297 293 302 309 312 314 317 319 320 319 321 328 336 341 338 338 335 330 329 325 319 316 312 309 307 304 302 301 294 289 287 284
151 210 213 219 239 265 276 275 292 269 317 294 280 290 300 304 309 314 318 322 326 326 327 333 338 340 343 341 334 324 322 322 319 317 314 310 303 294 294 293 289 289 288 287
258 268 272 276 272 284 302 284 292 290 312 271 279 294 305 312 316 320 321 322 325 325 325 335 337 340 342 340 339 332 329 325 323 318 312 309 301 297 290 286 283 285 282 281
239 221 233 249 276 293 296 292 296 301 297 270 284 302 309 313 317 317 319 325 325 324 329 337 340 343 342 342 341 338 332 330 325 320 317 313 311 307 300 295 285 281 278 273
237 255 256 271 277 284 290 292 287 277 269 273 289 303 310 316 319 318 328 329 328 326 331 336 341 347 346 345 343 342 333 331 327 323 315 309 305 300 298 304 298 296 292 286
242 253 261 262 270 290 276 297 286 269 270 285 300 308 314 317 317 327 332 330 329 330 336 338 342 349 349 348 345 344 341 339 334 327 323 319 312 305 298 291 294 298 295 292
255 252 253 268 274 262 262 282 261 261 277 291 296 304 313 320 326 331 333 335 334 337 339 341 344 349 351 349 349 346 345 344 341 338 335 331 323 314 308 303 299 297 295 295
223 223 238 236 235 259 257 255 251 263 278 284 293 308 318 322 329 340 335 336 339 341 343 342 344 346 351 351 352 351 350 351 351 349 346 344 341 334 321 317 303 300 303 302
230 232 236 237 240 250 251 262 254 262 269 277 292 315 328 334 339 343 346 343 341 346 348 346 345 348 351 353 357 357 357 357 1 0 359 358 356 350 335 322 318 314 308 308
246 253 251 243 238 245 249 247 248 258 265 278 295 316 332 345 347 348 345 342 341 346 353 353 351 352 355 356 0 6 6 6 9 11 13 15 18 20 18 15 10 11 24 62
234 228 219 221 229 240 235 236 248 259 259 275 285 307 325 344 350 340 335 337 339 344 350 354 355 355 358 1 1 13 15 16 19 22 24 26 29 33 37 39 42 43 46 57
217 210 206 208 213 215 220 229 241 250 262 275 278 291 311 330 338 341 333 336 338 342 346 350 354 356 358 358 4 9 22 23 26 29 33 35 36 38 41 45 49 52 55 58
214 202 195 202 208 215 220 230 244 259 277 276 278 288 300 311 324 336 333 328 333 338 344 350 355 359 1 359 4 11 15 28 31 33 37 41 46 47 50 52 55 57 59 61
192 189 192 198 208 217 222 236 257 266 278 280 281 282 289 298 308 322 329 320 330 335 341 348 353 1 1 2 5 9 15 21 26 33 43 43 43 45 47 49 50 52 56 60
188 191 198 206 216 227 231 245 265 271 284 289 283 278 285 290 298 313 324 321 325 330 336 342 348 354 358 360 8 15 18 22 27 31 33 40 51 51 49 48 48 49 50 50
191 204 210 219 228 234 242 260 276 276 286 289 283 271 279 282 294 308 319 320 325 328 330 335 340 345 349 355 4 12 20 26 29 32 36 38 38 38 41 44 47 47 46 44
210 213 217 233 242 251 259 269 268 271 277 280 280 277 275 278 287 302 308 308 315 322 328 333 334 336 339 347 354 2 9 17 24 27 29 32 35 36 37 36 35 35 37 40
206 222 238 254 262 262 262 261 269 275 272 274 274 276 273 271 279 292 300 298 304 313 326 336 339 341 345 351 356 358 5 9 12 17 22 25 27 27 29 29 29 28 28 30
238 239 247 259 267 275 267 273 282 280 276 278 279 278 274 267 271 283 287 284 291 304 321 338 348 351 360 6 10 12 15 17 20 21 22 22 20 19 19 17 15 15 16 16